www.pogodaiklimat.ru
ПОГОДА в Хокиаме
Время
и дата
18:53 23.06
19:53 23.06
20:53 23.06
21:45 23.06
21:53 23.06
22:01 23.06
22:10 23.06
22:26 23.06
22:34 23.06
22:53 23.06
23:12 23.06
23:27 23.06
23:53 23.06
00:01 24.06
00:03 24.06
00:53 24.06
01:53 24.06
02:53 24.06
03:07 24.06
03:53 24.06
04:16 24.06
04:35 24.06
04:51 24.06
04:53 24.06
05:53 24.06
06:53 24.06
07:33 24.06
07:44 24.06
07:53 24.06
08:04 24.06
08:53 24.06
09:00 24.06
09:53 24.06
10:53 24.06
11:53 24.06
12:53 24.06
13:53 24.06
14:53 24.06
15:53 24.06
16:53 24.06
17:53 24.06
18:53 24.06
19:53 24.06
20:53 24.06
21:53 24.06
22:53 24.06
23:53 24.06
00:53 25.06
Ветер
(напр.,м/с)
Видим. Явления Облачность Т
(С)
Тd
(С)
f
(%)
Тe
(С)
Тes
(С)
Комфортность P
(гПа)
Po
(гПа)
Тmin
(С)
Tmax
(С)
R
(мм)
R24
(мм)
S
(см)
З 5 16 км ясно +13.9 +11.1 83 +12 +13 1019.5 1018.7
З 5 16 км 2/2 630 м +13.3 +11.1 87 +11 +12 1019.5 1018.7
З 3 16 км 2/2 1170 м +12.8 +11.7 93 +11 +11 1019.7 1018.7
СЗ 2 16 км 8/8 360 м +13.3 +11.7 90 +13 +13 1018.7
СЗ 3 16 км 5/5 360 м +13.3 +11.1 87 +12 +12 1019.7 1018.7 +12.8 +15.6
СЗ 2 16 км 8/8 360 м +13.3 +11.7 90 +13 +13 1018.7
СЗ 2 16 км 2/2 780 м +13.3 +11.1 87 +13 +13 1018.7
штиль 0 16 км 8/8 450 м +12.8 +11.7 93 +12 +12 1018.7
З 2 16 км 8/8 390 м +13.3 +11.1 87 +13 +13 1018.7
ЮЗ 4 16 км 10/10 390 м +13.3 +12.2 93 +12 +12 1019.7 1018.7
штиль 0 16 км 10/10 270 м +13.3 +12.2 93 +13 +13 1019.0
З 3 16 км 10/10 270 м +13.3 +11.7 90 +12 +12 1019.0
З 3 16 км слабый дождь 10/10 270 m
[Ns]
+12.8 +11.7 93 +11 +11 1019.8 1019.0
З 3 16 км 10/10 270 м +12.8 +11.7 93 +11 +11 1018.7
З 3 16 км 10/10 270 м +12.8 +11.7 93 +11 +11 1018.7
СЗ 2 16 км 10/10 450 м +12.8 +11.7 93 +12 +12 1019.6 1018.7
С 2 16 км 5/5 1170 м +12.2 +10.6 90 +11 +11 1019.7 1018.7
штиль 0 16 км 10/10 660 м +11.7 +11.1 96 +11 +11 1019.6 1018.7
штиль 0 16 км 10/10 600 м +11.7 +11.1 96 +11 +11 1018.7
штиль 0 16 км 10/10 600 м +11.7 +11.1 96 +11 +11 1019.8 1019.0 +11.7 +13.3 1.0
штиль 0 16 км 8/8 720 м +11.7 +11.1 96 +11 +11 1019.0
штиль 0 16 км 8/8 690 м +11.1 +10.6 97 +10 +10 1018.7
штиль 0 16 км 10/10 240 м +12.0 +11.0 94 +11 +11 1018.7
штиль 0 16 км 10/10 240 м +11.7 +11.1 96 +11 +11 1019.7 1018.7
штиль 0 16 км 10/10 810 м +12.8 +11.7 93 +12 +12 1020.0 1019.0
штиль 0 16 км 8/8 600 м +13.9 +11.7 87 +13 +14 1020.0 1019.0
штиль 0 16 км 5/5 540 м +13.9 +11.1 83 +14 +16 1019.0
З 2 16 км 8/8 540 м +13.9 +11.1 83 +13 +14 1019.0
штиль 0 16 км 5/5 540 м +13.9 +10.6 80 +14 +16 1020.1 1019.0
штиль 0 16 км 8/8 600 м +13.9 +10.6 80 +14 +15 1019.0
штиль 0 16 км 8/8 870 м +15.0 +11.7 81 +15 +17 1020.2 1019.4
нст 3 16 км 5/5 540 м +15.0 +11.1 77 +14 +19 1019.4
ЮЗ 5 16 км 5/5 900 м +16.1 +12.2 78 +15 +18 1020.1 1019.4 +11.1 +16.7
З 6 16 км 2/2 1050 м +16.7 +12.2 75 +16 +20 1020.1 1019.0
З 5 16 км 10/10 960 м +16.7 +10.6 67 +16 +16 1020.0 1019.0
З 6 16 км 10/10 1500 м +17.8 +10.6 63 +17 +17 1019.7 1018.7
З 6 16 км 2/2 1500 м +18.3 +11.1 63 +18 +24 1019.4 1018.4
З 6 16 км ясно +17.8 +10.6 63 +17 +24 1019.0 1018.0
З 6 16 км ясно +17.8 +10.0 60 +17 +22 1018.6 1017.7 +16.1 +18.9
З 6 16 км ясно +17.2 +9.4 60 +16 +20 1018.3 1017.3
З 5 16 км ясно +16.7 +9.4 62 +16 +19 1017.9 1017.0
З 4 16 км ясно +16.1 +9.4 64 +15 +17 1017.9 1017.0
СЗ 2 16 км 8/8 1380 м +15.0 +10.0 72 +15 +15 1017.8 1017.0
штиль 0 16 км ясно +13.3 +10.0 80 +13 +13 1017.9 1017.0
штиль 0 16 км ясно +12.2 +9.4 83 +12 +12 1017.8 1017.0 +12.2 +17.8
штиль 0 16 км ясно +12.2 +9.4 83 +12 +12 1017.5 1016.7
штиль 0 16 км ясно +11.1 +8.9 86 +10 +10 1017.1 1016.3
штиль 0 16 км ясно +10.6 +8.9 89 +10 +10 1016.8 1016.0
Местоположение метеостанции Bowerman Airport: широта 46.9711 долгота -123.9200 высота над уровнем моря 4 м.
В архиве по умолчанию представлена погода в Хокиаме за последние 1-2 суток. Обновление информации о фактической погоде в базе происходит ежечасно! Архивные данные за месяц целиком и за предыдущие месяцы Вы можете получить, выбрав интересующий диапазон дат из раскрывающегося списка и нажав кнопку "Ввод!".
Внимание! Архив погоды МЕТАР в базе сайта по станциям, не включенным в климатический монитор, хранится не более 60 дней. Нет смысла пытаться выбрать более раннюю дату.
*Определитесь, кто Вы:
Внимание! Время в таблицах - местное (без учета летнего времени). Для получения всемирного времени необходимо вычесть поправку, которая равна -8 ч.
Смотрите также архив погоды в соседних городах и на ближайших метеорологических станциях:
Партнеры нашего сайта:      
Пояснения к столбцам:
  • Ветер - указаны скорость ветра в м/с - средняя за 10 мин, порывы в срок и между сроками (в фигурных скобках) и направление, откуда дует ветер: С - северный,
  • СВ - северо-восточный, В - восточный, ЮВ - юго-восточный, Ю - южный, ЮЗ - юго-западный, З - западный, СЗ - северо-западный.
  • Видимость - горизонтальная дальность видимости в метрах или километрах. При видимости от 1 до 10 км при отсутствии осадков обычно наблюдается дымка, при ухудшении видимости до 1 км и менее - туман. В сухую погоду видимость может ухудшаться дымом, пылью или мглою.
  • Явления - указаны атмосферные явления, наблюдавшиеся в срок или в последний час перед сроком; фигурными скобками обозначены явления, наблюдавшиеся между сроками (за 1-3 часа до срока); квадратными скобками обозначены град или гололедные отложения с указанием их диаметра в мм.
  • Облачность - указаны через наклонную черту общая и нижняя облачность в баллах и высота нижней границы облаков в метрах; квадратными скобками обозначены формы облаков: Ci - перистые, Cs - перисто-слоистые, Cc - перисто-кучевые, Ac - высококучевые, As - высокослоистые, Sc - слоисто-кучевые, Ns - слоисто-дождевые, Cu - кучевые, Cb - кучево-дождевые. Подробнее классификацию облаков см. в Атласе облаков (PDF).
  • T - Температура воздуха - температура, измеренная на высоте 2 м над землей.
  • Td - Температура точки росы - температура, при понижении до которой содержащийся в воздухе водяной пар достигнет насыщения.
  • f - Относительная влажность воздуха - влажноcть воздуха, измеренная на высоте 2 м над землей.
  • Te - Эффективная температура - температура, которую ощущает одетый по сезону человек в тени. Характеристика душности погоды. При расчете учитывается влияние влажности воздуха и скорости ветра на теплоощущения человека.
  • Tes - Эффективная температура на солнце - температура, которую ощущает человек, с поправкой на солнечный нагрев. Характеристика знойности погоды. Зависит от высоты солнца над горизонтом, облачности и скорости ветра. Ночью, в пасмурную погоду, а также при ветре 12 м/с и более поправка равна нулю.
  • P - Атмосферное давление - приведенное к уровню моря атмосферное давление.
  • Po - Атмосферное давление - измеренное на уровне метеостанции атмосферное давление.
  • Tmin - Минимальная температура - минимум температуры воздуха на высоте 2 м над землей.
  • Tmax - Максимальная температура - максимум температуры воздуха на высоте 2 м над землей.
  • R - Количество осадков - Количество выпавших осадков за период времени, мм. При наведении курсора мыши на число - период времени, за который выпало указанное количество осадков.
  • R24 - Количество осадков - Количество выпавших осадков за 24 часа, мм.
  • S - Снежный покров - Высота снежного покрова, см. При наведении курсора мыши на число - состояние снежного покрова и степень покрытия местности в баллах.